Regional Weather Roundup
Issued by NWS Newport/Morehead, NC

Home | Current Version | Previous Version | Text Only | Print | Product List | Glossary On
Versions: 1 2 3 4 5 6 7 8 9 10 11 12 13 14 15 16 17 18 19 20 21 22 23 24 25 26 27 28 29 30 31 32 33 34 35 36 37 38 39 40 41 42 43 44 45 46 47 48 49 50
000
ASUS42 KMHX 211814
RWRMHX
WEATHER ROUNDUP FOR EASTERN NORTH CAROLINA
NATIONAL WEATHER SERVICE NEWPORT/MOREHEAD CITY NC
200 PM EDT SAT APR 21 2018

NOTE: "FAIR" INDICATES FEW OR NO CLOUDS BELOW 12,000 FEET
WITH NO SIGNIFICANT WEATHER AND/OR OBSTRUCTIONS TO VISIBILITY

NCZ015>017-031-032-045>047-102-103-211900-
NORTH COAST

CITY           SKY/WX    TMP DP  RH WIND       PRES   REMARKS
EDENTON        FAIR      62  41  46 SE8       30.42F
ELIZABETH CITY FAIR      58  44  60 SE12      30.42F
KITTY HAWK     FAIR      52  39  61 NE7       30.43F
MANTEO         FAIR      54  40  58 E10       30.44F

$$

NCZ045>047-081-094-103-104-211900-
CENTRAL COAST

CITY           SKY/WX    TMP DP  RH WIND       PRES   REMARKS
FRISCO         FAIR      59  38  45 VRB7      30.43F

$$

NCZ095-097-098-100-101-211900-
SOUTHERN COAST

CITY           SKY/WX    TMP DP  RH WIND       PRES   REMARKS
BEAUFORT       FAIR      63  40  42 E10G17    30.40F
CEDAR ISLAND   NOT AVBL
JACKSONVILLE   FAIR      66  36  32 S6        30.38F
PINEY ISLAND   NOT AVBL
WILMINGTON     FAIR      66  29  24 E10       30.39F


$$

NCZ011>013-027>030-043-044-078>080-089-090>093-098-211900-
COASTAL PLAIN

CITY           SKY/WX    TMP DP  RH WIND       PRES   REMARKS
AHOSKIE        FAIR      61  32  33 NE6       30.40F
CLINTON        FAIR      67  37  34 E5        30.39F
ELIZABETHTOWN  FAIR      67  36  30 MISG      30.38F
GOLDSBORO      FAIR      67  37  33 NW6       30.38F
GREENVILLE     FAIR      64  34  32 E7        30.40S
HAVELOCK       SUNNY     66  40  38 CALM      30.41F
KENANSVILLE    FAIR      64  34  32 N6        30.39F
KINSTON        FAIR      66  32  28 NE6       30.40F
NEW BERN       FAIR      64  36  35 E7        30.40F
RICHLANDS      FAIR      67  35  30 CALM      30.39F
ROCKY MOUNT    FAIR      64  33  31 VRB5      30.40F
WASHINGTON     FAIR      66  33  28 CALM      30.39F
WHITEVILLE     FAIR      67  37  32 E9        30.37F

$$

AMZ130-135-150-152-154-156-158-170-250-252-270-ANZ085-086-088-633-658-670-211900-
MARINE OBSERVATIONS

STATION/POSITION TIME  TEMP    WIND        PRES    WAVE   SWELL
                       AIR SEA DIR/SP/G            HT/PER HT/PER
                 (UTC) (F)     (DEG/KT/KT) (MB)    (FT/S) (FT/S)
CHESAPEAKE LIGHT NOT AVBL
64 E VA BEACH    1750   46 49   10/ 10/ 12 1031.2    2/ 5   2/ 5
DUCK             1748   48 52   50/  9/ 10 1030.3
2 E DUCK         1800      53                N/A     2/14
OREGON INLET     1736   50 55   20/  9/ 12 1030.6
13E OREGON INLT  1748      50                N/A     3/ 7   2/ 7
HATTERAS CG      1748   54      70/  7/ 12 1030.2
DIAMOND BUOY     1800   55 71   20/ 14/ 19 1030.3
CAPE LOOKOUT     1800           60/ 14/ 16 1030.1
BEAUFORT LAB     1748   60 62  100/  9/ 15 1029.5
30 SE NEW RVR IN 1708   59 66   70/ 10/ 14 1030.0
30 SE NEW RVR IN 1800      66                N/A     3/ 8
27 SE WRIGHTSVLE 1708   60 66   60/ 17/ 23 1029.2
5 SE WRIGHTSVLE  1708   59 60   60/ 12/ 16 1029.5
225 S CAPE HAT   1800   64 73   60/ 10/ 14 1026.8
41 SE CHARLESTON 1800   66 67   80/ 16/ 19 1027.1

$$



USA.gov is the U.S. government's official web portal to all federal, state and local government web resources and services.